| time (UTC) | temp F | wind direction | speed MPH | gust MPH | rain 1hr in | rain 24hr in | rain mn in | humidity % | barometer mb |
| 20260510062051 | 45 | 0 | 0.0 | 0.0 | 0.00 | 0.13 | 0.00 | 9 | 1011.6 |
| 20260510060552 | 45 | 0 | 0.0 | 0.0 | 0.00 | 0.13 | 0.00 | 9 | 1011.8 |
| 20260510055051 | 45 | 0 | 0.0 | 0.0 | 0.00 | 0.13 | 0.00 | 9 | 1011.9 |
| 20260510053552 | 46 | 0 | 0.0 | 0.0 | 0.00 | 0.13 | 0.00 | 9 | 1011.8 |
| 20260510052053 | 46 | 0 | 0.0 | 0.0 | 0.00 | 0.13 | 0.00 | 9 | 1011.9 |
| 20260510050552 | 46 | 0 | 0.0 | 0.0 | 0.00 | 0.13 | 0.00 | 9 | 1011.9 |
| 20260510045053 | 47 | 0 | 0.0 | 0.0 | 0.00 | 0.13 | 0.00 | 9 | 1012.0 |
| 20260510043551 | 47 | 0 | 0.0 | 0.0 | 0.00 | 0.13 | 0.00 | 9 | 1012.0 |
| 20260510040552 | 48 | 0 | 0.0 | 0.0 | 0.00 | 0.13 | 0.00 | 9 | 1012.0 |
| 20260510040419 | 48 | 0 | 0.0 | 0.0 | 0.00 | 0.13 | 0.00 | 9 | 1011.7 |
| 20260510035052 | 49 | 0 | 0.0 | 0.0 | 0.00 | 0.13 | 0.00 | 9 | 1012.0 |
| 20260510033551 | 48 | 0 | 0.0 | 0.0 | 0.00 | 0.13 | 0.00 | 9 | 1011.7 |
| 20260510032054 | 48 | 0 | 0.0 | 0.0 | 0.00 | 0.13 | 0.00 | 9 | 1011.8 |
| 20260510030320 | 48 | 0 | 0.0 | 0.0 | 0.00 | 0.13 | 0.00 | 9 | 1011.6 |
| 20260510030026 | 48 | 0 | 0.0 | 0.0 | 0.00 | 0.13 | 0.00 | 9 | 1011.6 |
| 20260510025052 | 48 | 0 | 0.0 | 0.0 | 0.00 | 0.13 | 0.00 | 9 | 1011.6 |
| 20260510023552 | 48 | 0 | 0.0 | 0.0 | 0.00 | 0.13 | 0.00 | 9 | 1011.6 |
| 20260510022053 | 48 | 0 | 0.0 | 0.0 | 0.00 | 0.13 | 0.00 | 9 | 1011.6 |
| 20260510015051 | 50 | 0 | 0.0 | 0.0 | 0.00 | 0.13 | 0.00 | 9 | 1011.8 |
| 20260510013551 | 50 | 0 | 0.0 | 0.0 | 0.00 | 0.13 | 0.00 | 9 | 1011.6 |
| 20260510010551 | 51 | 0 | 0.0 | 0.0 | 0.00 | 0.13 | 0.00 | 9 | 1011.5 |
| 20260510005053 | 51 | 0 | 0.0 | 0.0 | 0.00 | 0.13 | 0.00 | 9 | 1011.3 |
| 20260510003551 | 52 | 0 | 0.0 | 0.0 | 0.00 | 0.13 | 0.00 | 9 | 1011.2 |
| 20260510002052 | 53 | 0 | 0.0 | 0.0 | 0.00 | 0.13 | 0.00 | 9 | 1011.2 |
| 20260510000553 | 54 | 0 | 0.0 | 0.0 | 0.00 | 0.13 | 0.00 | 9 | 1011.1 |
| 20260509235051 | 55 | 0 | 0.0 | 0.0 | 0.00 | 0.13 | 0.13 | 9 | 1011.0 |
| 20260509233653 | 56 | 0 | 0.0 | 0.0 | 0.00 | 0.13 | 0.13 | 9 | 1010.8 |
| 20260509233551 | 56 | 0 | 0.0 | 0.0 | 0.00 | 0.13 | 0.13 | 9 | 1010.8 |
| 20260509232051 | 57 | 0 | 0.0 | 0.0 | 0.00 | 0.13 | 0.13 | 9 | 1010.9 |
| 20260509230553 | 57 | 0 | 0.0 | 0.0 | 0.03 | 0.13 | 0.13 | 9 | 1010.9 |
| 20260509225053 | 58 | 0 | 0.0 | 0.0 | 0.10 | 0.13 | 0.13 | 8 | 1010.9 |
| 20260509223553 | 59 | 0 | 0.0 | 0.0 | 0.10 | 0.13 | 0.13 | 9 | 1011.4 |
| 20260509222051 | 57 | 0 | 0.0 | 0.0 | 0.09 | 0.12 | 0.12 | 9 | 1011.3 |
| 20260509220551 | 56 | 0 | 0.0 | 0.0 | 0.06 | 0.09 | 0.09 | 9 | 1011.5 |
| 20260509215052 | 59 | 0 | 0.0 | 0.0 | 0.00 | 0.03 | 0.03 | 7 | 1012.0 |
| 20260509213627 | 61 | 270 | 0.0 | 2.0 | 0.00 | 0.03 | 0.03 | 7 | 1011.6 |
| 20260509213551 | 61 | 270 | 0.0 | 2.0 | 0.00 | 0.03 | 0.03 | 7 | 1011.6 |
| 20260509212052 | 60 | 0 | 0.0 | 0.0 | 0.00 | 0.03 | 0.03 | 7 | 1011.2 |
| 20260509210551 | 61 | 0 | 0.0 | 0.0 | 0.00 | 0.03 | 0.03 | 7 | 1011.1 |
| 20260509205052 | 60 | 270 | 0.0 | 3.0 | 0.00 | 0.03 | 0.03 | 7 | 1011.4 |